Year,Month,Day,Hour,Minute,Value (Times are PST for windgust in km/hr)
2007,01,05,00,00,8.10
2007,01,05,00,01,14.50
2007,01,05,00,02,14.50
2007,01,05,00,03,11.30
2007,01,05,00,04,11.30
2007,01,05,00,05,11.30
2007,01,05,00,06,14.50
2007,01,05,00,07,9.60
2007,01,05,00,08,9.60
2007,01,05,00,09,4.80
2007,01,05,00,10,6.40
2007,01,05,00,11,12.90
2007,01,05,00,12,11.30
2007,01,05,00,13,11.30
2007,01,05,00,14,8.10
2007,01,05,00,15,9.60
2007,01,05,00,16,6.40
2007,01,05,00,17,9.60
2007,01,05,00,18,9.60
2007,01,05,00,19,6.40
2007,01,05,00,20,4.80
2007,01,05,00,21,4.80
2007,01,05,00,22,6.40
2007,01,05,00,23,8.10
2007,01,05,00,24,4.80
2007,01,05,00,25,9.60
2007,01,05,00,26,9.60
2007,01,05,00,27,14.50
2007,01,05,00,28,8.10
2007,01,05,00,29,8.10
2007,01,05,00,30,19.30
2007,01,05,00,31,11.30
2007,01,05,00,32,9.60
2007,01,05,00,33,9.60
2007,01,05,00,34,11.30
2007,01,05,00,35,11.30
2007,01,05,00,36,14.50
2007,01,05,00,37,11.30
2007,01,05,00,38,11.30
2007,01,05,00,39,14.50
2007,01,05,00,40,14.50
2007,01,05,00,41,11.30
2007,01,05,00,42,8.10
2007,01,05,00,43,11.30
2007,01,05,00,44,6.40
2007,01,05,00,45,8.10
2007,01,05,00,46,6.40
2007,01,05,00,47,4.80
2007,01,05,00,48,4.80
2007,01,05,00,49,6.40
2007,01,05,00,50,6.40
2007,01,05,00,51,4.80
2007,01,05,00,52,4.80
2007,01,05,00,53,8.10
2007,01,05,00,54,6.40
2007,01,05,00,55,6.40
2007,01,05,00,56,8.10
2007,01,05,00,57,4.80
2007,01,05,00,58,8.10
2007,01,05,00,59,9.60
2007,01,05,01,00,11.30
2007,01,05,01,01,14.50
2007,01,05,01,02,6.40
2007,01,05,01,03,8.10
2007,01,05,01,04,16.10
2007,01,05,01,05,20.90
2007,01,05,01,06,20.90
2007,01,05,01,07,16.10
2007,01,05,01,08,22.50
2007,01,05,01,09,27.40
2007,01,05,01,10,20.90
2007,01,05,01,11,19.30
2007,01,05,01,12,19.30
2007,01,05,01,13,20.90
2007,01,05,01,14,16.10
2007,01,05,01,15,22.50
2007,01,05,01,16,17.70
2007,01,05,01,17,20.90
2007,01,05,01,18,20.90
2007,01,05,01,19,16.10
2007,01,05,01,20,20.90
2007,01,05,01,21,9.60
2007,01,05,01,22,9.60
2007,01,05,01,23,17.70
2007,01,05,01,24,20.90
2007,01,05,01,25,14.50
2007,01,05,01,26,16.10
2007,01,05,01,27,16.10
2007,01,05,01,28,16.10
2007,01,05,01,29,11.30
2007,01,05,01,30,11.30
2007,01,05,01,31,9.60
2007,01,05,01,32,8.10
2007,01,05,01,33,6.40
2007,01,05,01,34,8.10
2007,01,05,01,35,4.80
2007,01,05,01,36,3.20
2007,01,05,01,37,4.80
2007,01,05,01,38,4.80
2007,01,05,01,39,3.20
2007,01,05,01,40,1.60
2007,01,05,01,41,4.80
2007,01,05,01,42,16.10
2007,01,05,01,43,6.40
2007,01,05,01,44,8.10
2007,01,05,01,45,6.40
2007,01,05,01,46,9.60
2007,01,05,01,47,16.10
2007,01,05,01,48,11.30
2007,01,05,01,49,6.40
2007,01,05,01,50,6.40
2007,01,05,01,51,9.60
2007,01,05,01,52,4.80
2007,01,05,01,53,3.20
2007,01,05,01,54,3.20
2007,01,05,01,55,4.80
2007,01,05,01,56,4.80
2007,01,05,01,57,4.80
2007,01,05,01,58,4.80
2007,01,05,01,59,4.80
2007,01,05,02,00,4.80
2007,01,05,02,01,6.40
2007,01,05,02,02,4.80
2007,01,05,02,03,6.40
2007,01,05,02,04,4.80
2007,01,05,02,05,4.80
2007,01,05,02,06,4.80
2007,01,05,02,07,4.80
2007,01,05,02,08,6.40
2007,01,05,02,09,6.40
2007,01,05,02,10,4.80
2007,01,05,02,11,6.40
2007,01,05,02,12,4.80
2007,01,05,02,13,6.40
2007,01,05,02,14,4.80
2007,01,05,02,15,4.80
2007,01,05,02,16,3.20
2007,01,05,02,17,1.60
2007,01,05,02,18,6.40
2007,01,05,02,19,6.40
2007,01,05,02,20,6.40
2007,01,05,02,21,3.20
2007,01,05,02,22,3.20
2007,01,05,02,23,4.80
2007,01,05,02,24,4.80
2007,01,05,02,25,4.80
2007,01,05,02,26,4.80
2007,01,05,02,27,6.40
2007,01,05,02,28,4.80
2007,01,05,02,29,1.60
2007,01,05,02,30,4.80
2007,01,05,02,31,6.40
2007,01,05,02,32,4.80
2007,01,05,02,33,4.80
2007,01,05,02,34,6.40
2007,01,05,02,35,6.40
2007,01,05,02,36,3.20
2007,01,05,02,37,8.10
2007,01,05,02,38,6.40
2007,01,05,02,39,6.40
2007,01,05,02,40,6.40
2007,01,05,02,41,4.80
2007,01,05,02,42,6.40
2007,01,05,02,43,3.20
2007,01,05,02,44,4.80
2007,01,05,02,45,4.80
2007,01,05,02,46,3.20
2007,01,05,02,47,4.80
2007,01,05,02,48,3.20
2007,01,05,02,49,4.80
2007,01,05,02,50,3.20
2007,01,05,02,51,4.80
2007,01,05,02,52,4.80
2007,01,05,02,53,4.80
2007,01,05,02,54,4.80
2007,01,05,02,55,4.80
2007,01,05,02,56,3.20
2007,01,05,02,57,3.20
2007,01,05,02,58,4.80
2007,01,05,02,59,4.80
2007,01,05,03,00,4.80
2007,01,05,03,01,4.80
2007,01,05,03,02,6.40
2007,01,05,03,03,6.40
2007,01,05,03,04,6.40
2007,01,05,03,05,6.40
2007,01,05,03,06,6.40
2007,01,05,03,07,6.40
2007,01,05,03,08,6.40
2007,01,05,03,09,4.80
2007,01,05,03,10,6.40
2007,01,05,03,11,6.40
2007,01,05,03,12,4.80
2007,01,05,03,13,4.80
2007,01,05,03,14,3.20
2007,01,05,03,15,3.20
2007,01,05,03,16,3.20
2007,01,05,03,17,1.60
2007,01,05,03,18,1.60
2007,01,05,03,19,0.00
2007,01,05,03,20,0.00
2007,01,05,03,21,0.00
2007,01,05,03,22,3.20
2007,01,05,03,23,3.20
2007,01,05,03,24,3.20
2007,01,05,03,25,0.00
2007,01,05,03,26,1.60
2007,01,05,03,27,3.20
2007,01,05,03,28,6.40
2007,01,05,03,29,4.80
2007,01,05,03,30,6.40
2007,01,05,03,31,4.80
2007,01,05,03,32,4.80
2007,01,05,03,33,3.20
2007,01,05,03,34,3.20
2007,01,05,03,35,3.20
2007,01,05,03,36,1.60
2007,01,05,03,37,0.00
2007,01,05,03,38,3.20
2007,01,05,03,39,3.20
2007,01,05,03,40,3.20
2007,01,05,03,41,3.20
2007,01,05,03,42,4.80
2007,01,05,03,43,3.20
2007,01,05,03,44,3.20
2007,01,05,03,45,3.20
2007,01,05,03,46,3.20
2007,01,05,03,47,0.00
2007,01,05,03,48,1.60
2007,01,05,03,49,4.80
2007,01,05,03,50,4.80
2007,01,05,03,51,4.80
2007,01,05,03,52,4.80
2007,01,05,03,53,4.80
2007,01,05,03,54,4.80
2007,01,05,03,55,3.20
2007,01,05,03,56,3.20
2007,01,05,03,57,4.80
2007,01,05,03,58,4.80
2007,01,05,03,59,3.20
2007,01,05,04,00,3.20
2007,01,05,04,01,4.80
2007,01,05,04,02,4.80
2007,01,05,04,03,3.20
2007,01,05,04,04,3.20
2007,01,05,04,05,3.20
2007,01,05,04,06,4.80
2007,01,05,04,07,6.40
2007,01,05,04,08,6.40
2007,01,05,04,09,6.40
2007,01,05,04,10,3.20
2007,01,05,04,11,1.60
2007,01,05,04,12,0.00
2007,01,05,04,13,0.00
2007,01,05,04,14,1.60
2007,01,05,04,15,0.00
2007,01,05,04,16,1.60
2007,01,05,04,17,3.20
2007,01,05,04,18,3.20
2007,01,05,04,19,0.00
2007,01,05,04,20,0.00
2007,01,05,04,21,3.20
2007,01,05,04,22,3.20
2007,01,05,04,23,4.80
2007,01,05,04,24,3.20
2007,01,05,04,25,3.20
2007,01,05,04,26,3.20
2007,01,05,04,27,3.20
2007,01,05,04,28,4.80
2007,01,05,04,29,1.60
2007,01,05,04,30,3.20
2007,01,05,04,31,3.20
2007,01,05,04,32,6.40
2007,01,05,04,33,4.80
2007,01,05,04,34,3.20
2007,01,05,04,35,4.80
2007,01,05,04,36,4.80
2007,01,05,04,37,4.80
2007,01,05,04,38,3.20
2007,01,05,04,39,0.00
2007,01,05,04,40,3.20
2007,01,05,04,41,0.00
2007,01,05,04,42,4.80
2007,01,05,04,43,4.80
2007,01,05,04,44,4.80
2007,01,05,04,45,3.20
2007,01,05,04,46,4.80
2007,01,05,04,47,6.40
2007,01,05,04,48,3.20
2007,01,05,04,49,3.20
2007,01,05,04,50,3.20
2007,01,05,04,51,1.60
2007,01,05,04,52,1.60
2007,01,05,04,53,1.60
2007,01,05,04,54,3.20
2007,01,05,04,55,3.20
2007,01,05,04,56,3.20
2007,01,05,04,57,3.20
2007,01,05,04,58,1.60
2007,01,05,04,59,3.20
2007,01,05,05,00,3.20
2007,01,05,05,01,4.80
2007,01,05,05,02,4.80
2007,01,05,05,03,6.40
2007,01,05,05,04,6.40
2007,01,05,05,05,4.80
2007,01,05,05,06,6.40
2007,01,05,05,07,6.40
2007,01,05,05,08,6.40
2007,01,05,05,09,6.40
2007,01,05,05,10,4.80
2007,01,05,05,11,4.80
2007,01,05,05,12,4.80
2007,01,05,05,13,6.40
2007,01,05,05,14,6.40
2007,01,05,05,15,4.80
2007,01,05,05,16,6.40
2007,01,05,05,17,6.40
2007,01,05,05,18,6.40
2007,01,05,05,19,4.80
2007,01,05,05,20,4.80
2007,01,05,05,21,4.80
2007,01,05,05,22,4.80
2007,01,05,05,23,6.40
2007,01,05,05,24,8.10
2007,01,05,05,25,6.40
2007,01,05,05,26,8.10
2007,01,05,05,27,6.40
2007,01,05,05,28,6.40
2007,01,05,05,29,4.80
2007,01,05,05,30,6.40
2007,01,05,05,31,8.10
2007,01,05,05,32,6.40
2007,01,05,05,33,6.40
2007,01,05,05,34,6.40
2007,01,05,05,35,4.80
2007,01,05,05,36,4.80
2007,01,05,05,37,6.40
2007,01,05,05,38,6.40
2007,01,05,05,39,6.40
2007,01,05,05,40,8.10
2007,01,05,05,41,4.80
2007,01,05,05,42,6.40
2007,01,05,05,43,6.40
2007,01,05,05,44,8.10
2007,01,05,05,45,8.10
2007,01,05,05,46,8.10
2007,01,05,05,47,11.30
2007,01,05,05,48,9.60
2007,01,05,05,49,8.10
2007,01,05,05,50,8.10
2007,01,05,05,51,12.90
2007,01,05,05,52,8.10
2007,01,05,05,53,8.10
2007,01,05,05,54,9.60
2007,01,05,05,55,8.10
2007,01,05,05,56,4.80
2007,01,05,05,57,3.20
2007,01,05,05,58,6.40
2007,01,05,05,59,4.80
2007,01,05,06,00,8.10
2007,01,05,06,01,8.10
2007,01,05,06,02,16.10
2007,01,05,06,03,11.30
2007,01,05,06,04,11.30
2007,01,05,06,05,8.10
2007,01,05,06,06,9.60
2007,01,05,06,07,9.60
2007,01,05,06,08,8.10
2007,01,05,06,09,6.40
2007,01,05,06,10,6.40
2007,01,05,06,11,6.40
2007,01,05,06,12,6.40
2007,01,05,06,13,4.80
2007,01,05,06,14,4.80
2007,01,05,06,15,8.10
2007,01,05,06,16,9.60
2007,01,05,06,17,8.10
2007,01,05,06,18,4.80
2007,01,05,06,19,3.20
2007,01,05,06,20,6.40
2007,01,05,06,21,9.60
2007,01,05,06,22,9.60
2007,01,05,06,23,8.10
2007,01,05,06,24,6.40
2007,01,05,06,25,4.80
2007,01,05,06,26,3.20
2007,01,05,06,27,3.20
2007,01,05,06,28,4.80
2007,01,05,06,29,3.20
2007,01,05,06,30,3.20
2007,01,05,06,31,3.20
2007,01,05,06,32,4.80
2007,01,05,06,33,3.20
2007,01,05,06,34,3.20
2007,01,05,06,35,4.80
2007,01,05,06,36,4.80
2007,01,05,06,37,6.40
2007,01,05,06,38,6.40
2007,01,05,06,39,4.80
2007,01,05,06,40,1.60
2007,01,05,06,41,4.80
2007,01,05,06,42,4.80
2007,01,05,06,43,6.40
2007,01,05,06,44,4.80
2007,01,05,06,45,1.60
2007,01,05,06,46,3.20
2007,01,05,06,47,3.20
2007,01,05,06,48,3.20
2007,01,05,06,49,3.20
2007,01,05,06,50,1.60
2007,01,05,06,51,0.00
2007,01,05,06,52,1.60
2007,01,05,06,53,1.60
2007,01,05,06,54,3.20
2007,01,05,06,55,3.20
2007,01,05,06,56,3.20
2007,01,05,06,57,3.20
2007,01,05,06,58,3.20
2007,01,05,06,59,3.20
2007,01,05,07,00,3.20
2007,01,05,07,01,4.80
2007,01,05,07,02,3.20
2007,01,05,07,03,1.60
2007,01,05,07,04,4.80
2007,01,05,07,05,3.20
2007,01,05,07,06,3.20
2007,01,05,07,07,3.20
2007,01,05,07,08,4.80
2007,01,05,07,09,4.80
2007,01,05,07,10,4.80
2007,01,05,07,11,6.40
2007,01,05,07,12,6.40
2007,01,05,07,13,6.40
2007,01,05,07,14,4.80
2007,01,05,07,15,0.00
2007,01,05,07,16,1.60
2007,01,05,07,17,4.80
2007,01,05,07,18,6.40
2007,01,05,07,19,4.80
2007,01,05,07,20,4.80
2007,01,05,07,21,4.80
2007,01,05,07,22,4.80
2007,01,05,07,23,4.80
2007,01,05,07,24,6.40
2007,01,05,07,25,6.40
2007,01,05,07,26,4.80
2007,01,05,07,27,4.80
2007,01,05,07,28,4.80
2007,01,05,07,29,4.80
2007,01,05,07,30,3.20
2007,01,05,07,31,3.20
2007,01,05,07,32,3.20
2007,01,05,07,33,4.80
2007,01,05,07,34,4.80
2007,01,05,07,35,4.80
2007,01,05,07,36,3.20
2007,01,05,07,37,3.20
2007,01,05,07,38,1.60
2007,01,05,07,39,3.20
2007,01,05,07,40,4.80
2007,01,05,07,41,4.80
2007,01,05,07,42,3.20
2007,01,05,07,43,3.20
2007,01,05,07,44,3.20
2007,01,05,07,45,3.20
2007,01,05,07,46,3.20
2007,01,05,07,47,4.80
2007,01,05,07,48,3.20
2007,01,05,07,49,3.20
2007,01,05,07,50,3.20
2007,01,05,07,51,3.20
2007,01,05,07,52,4.80
2007,01,05,07,53,3.20
2007,01,05,07,54,3.20
2007,01,05,07,55,3.20
2007,01,05,07,56,1.60
2007,01,05,07,57,0.00
2007,01,05,07,58,1.60
2007,01,05,07,59,3.20
2007,01,05,08,00,4.80
2007,01,05,08,01,3.20
2007,01,05,08,02,4.80
2007,01,05,08,03,4.80
2007,01,05,08,04,3.20
2007,01,05,08,05,3.20
2007,01,05,08,06,4.80
2007,01,05,08,07,3.20
2007,01,05,08,08,3.20
2007,01,05,08,09,3.20
2007,01,05,08,10,3.20
2007,01,05,08,11,4.80
2007,01,05,08,12,4.80
2007,01,05,08,13,4.80
2007,01,05,08,14,3.20
2007,01,05,08,15,6.40
2007,01,05,08,16,6.40
2007,01,05,08,17,6.40
2007,01,05,08,18,6.40
2007,01,05,08,19,6.40
2007,01,05,08,20,6.40
2007,01,05,08,21,4.80
2007,01,05,08,22,4.80
2007,01,05,08,23,4.80
2007,01,05,08,24,6.40
2007,01,05,08,25,4.80
2007,01,05,08,26,4.80
2007,01,05,08,27,3.20
2007,01,05,08,28,4.80
2007,01,05,08,29,4.80
2007,01,05,08,30,6.40
2007,01,05,08,31,6.40
2007,01,05,08,32,4.80
2007,01,05,08,33,6.40
2007,01,05,08,34,6.40
2007,01,05,08,35,4.80
2007,01,05,08,36,4.80
2007,01,05,08,37,4.80
2007,01,05,08,38,4.80
2007,01,05,08,39,3.20
2007,01,05,08,40,3.20
2007,01,05,08,41,3.20
2007,01,05,08,42,3.20
2007,01,05,08,43,3.20
2007,01,05,08,44,4.80
2007,01,05,08,45,4.80
2007,01,05,08,46,4.80
2007,01,05,08,47,4.80
2007,01,05,08,48,4.80
2007,01,05,08,49,3.20
2007,01,05,08,50,4.80
2007,01,05,08,51,4.80
2007,01,05,08,52,4.80
2007,01,05,08,53,3.20
2007,01,05,08,54,4.80
2007,01,05,08,55,4.80
2007,01,05,08,56,6.40
2007,01,05,08,57,6.40
2007,01,05,08,58,4.80
2007,01,05,08,59,1.60
2007,01,05,09,00,4.80
2007,01,05,09,01,4.80
2007,01,05,09,02,1.60
2007,01,05,09,03,0.00
2007,01,05,09,04,0.00
2007,01,05,09,05,0.00
2007,01,05,09,06,3.20
2007,01,05,09,07,3.20
2007,01,05,09,08,0.00
2007,01,05,09,09,3.20
2007,01,05,09,10,4.80
2007,01,05,09,11,3.20
2007,01,05,09,12,4.80
2007,01,05,09,13,4.80
2007,01,05,09,14,3.20
2007,01,05,09,15,1.60
2007,01,05,09,16,3.20
2007,01,05,09,17,4.80
2007,01,05,09,18,3.20
2007,01,05,09,19,3.20
2007,01,05,09,20,0.00
2007,01,05,09,21,0.00
2007,01,05,09,22,0.00
2007,01,05,09,23,1.60
2007,01,05,09,24,3.20
2007,01,05,09,25,3.20
2007,01,05,09,26,3.20
2007,01,05,09,27,1.60
2007,01,05,09,28,0.00
2007,01,05,09,29,0.00
2007,01,05,09,30,0.00
2007,01,05,09,31,0.00
2007,01,05,09,32,3.20
2007,01,05,09,33,3.20
2007,01,05,09,34,3.20
2007,01,05,09,35,3.20
2007,01,05,09,36,3.20
2007,01,05,09,37,3.20
2007,01,05,09,38,3.20
2007,01,05,09,39,0.00
2007,01,05,09,40,0.00
2007,01,05,09,41,1.60
2007,01,05,09,42,1.60
2007,01,05,09,43,4.80
2007,01,05,09,44,3.20
2007,01,05,09,45,4.80
2007,01,05,09,46,3.20
2007,01,05,09,47,3.20
2007,01,05,09,48,3.20
2007,01,05,09,49,4.80
2007,01,05,09,50,3.20
2007,01,05,09,51,4.80
2007,01,05,09,52,3.20
2007,01,05,09,53,3.20
2007,01,05,09,54,3.20
2007,01,05,09,55,3.20
2007,01,05,09,56,3.20
2007,01,05,09,57,3.20
2007,01,05,09,58,3.20
2007,01,05,09,59,3.20
2007,01,05,10,00,4.80
2007,01,05,10,01,3.20
2007,01,05,10,02,3.20
2007,01,05,10,03,3.20
2007,01,05,10,04,3.20
2007,01,05,10,05,3.20
2007,01,05,10,06,3.20
2007,01,05,10,07,3.20
2007,01,05,10,08,1.60
2007,01,05,10,09,3.20
2007,01,05,10,10,3.20
2007,01,05,10,11,3.20
2007,01,05,10,12,3.20
2007,01,05,10,13,1.60
2007,01,05,10,14,1.60
2007,01,05,10,15,1.60
2007,01,05,10,16,0.00
2007,01,05,10,17,0.00
2007,01,05,10,18,0.00
2007,01,05,10,19,0.00
2007,01,05,10,20,0.00
2007,01,05,10,21,0.00
2007,01,05,10,22,0.00
2007,01,05,10,23,0.00
2007,01,05,10,24,0.00
2007,01,05,10,25,0.00
2007,01,05,10,26,0.00
2007,01,05,10,27,0.00
2007,01,05,10,28,0.00
2007,01,05,10,29,0.00
2007,01,05,10,30,0.00
2007,01,05,10,31,0.00
2007,01,05,10,32,0.00
2007,01,05,10,33,0.00
2007,01,05,10,34,0.00
2007,01,05,10,35,0.00
2007,01,05,10,36,1.60
2007,01,05,10,37,0.00
2007,01,05,10,38,0.00
2007,01,05,10,39,0.00
2007,01,05,10,40,0.00
2007,01,05,10,41,0.00
2007,01,05,10,42,0.00
2007,01,05,10,43,0.00
2007,01,05,10,44,0.00
2007,01,05,10,45,0.00
2007,01,05,10,46,0.00
2007,01,05,10,47,0.00
2007,01,05,10,48,0.00
2007,01,05,10,49,0.00
2007,01,05,10,50,0.00
2007,01,05,10,51,0.00
2007,01,05,10,52,0.00
2007,01,05,10,53,0.00
2007,01,05,10,54,0.00
2007,01,05,10,55,0.00
2007,01,05,10,56,0.00
2007,01,05,10,57,0.00
2007,01,05,10,58,0.00
2007,01,05,10,59,0.00
2007,01,05,11,00,0.00
2007,01,05,11,01,0.00
2007,01,05,11,02,0.00
2007,01,05,11,03,0.00
2007,01,05,11,04,0.00
2007,01,05,11,05,0.00
2007,01,05,11,06,0.00
2007,01,05,11,07,0.00
2007,01,05,11,08,0.00
2007,01,05,11,09,0.00
2007,01,05,11,10,0.00
2007,01,05,11,11,0.00
2007,01,05,11,12,0.00
2007,01,05,11,13,0.00
2007,01,05,11,14,1.60
2007,01,05,11,15,0.00
2007,01,05,11,16,0.00
2007,01,05,11,17,0.00
2007,01,05,11,18,0.00
2007,01,05,11,19,3.20
2007,01,05,11,20,0.00
2007,01,05,11,21,3.20
2007,01,05,11,22,0.00
2007,01,05,11,23,3.20
2007,01,05,11,24,3.20
2007,01,05,11,25,1.60
2007,01,05,11,26,3.20
2007,01,05,11,27,1.60
2007,01,05,11,28,1.60
2007,01,05,11,29,1.60
2007,01,05,11,30,0.00
2007,01,05,11,31,3.20
2007,01,05,11,32,1.60
2007,01,05,11,33,3.20
2007,01,05,11,34,3.20
2007,01,05,11,35,3.20
2007,01,05,11,36,4.80
2007,01,05,11,37,8.10
2007,01,05,11,38,6.40
2007,01,05,11,39,6.40
2007,01,05,11,40,6.40
2007,01,05,11,41,1.60
2007,01,05,11,42,1.60
2007,01,05,11,43,4.80
2007,01,05,11,44,6.40
2007,01,05,11,45,3.20
2007,01,05,11,46,3.20
2007,01,05,11,47,1.60
2007,01,05,11,48,3.20
2007,01,05,11,49,1.60
2007,01,05,11,50,0.00
2007,01,05,11,51,0.00
2007,01,05,11,52,0.00
2007,01,05,11,53,3.20
2007,01,05,11,54,3.20
2007,01,05,11,55,3.20
2007,01,05,11,56,3.20
2007,01,05,11,57,3.20
2007,01,05,11,58,3.20
2007,01,05,11,59,3.20
2007,01,05,12,00,3.20
2007,01,05,12,01,3.20
2007,01,05,12,02,4.80
2007,01,05,12,03,1.60
2007,01,05,12,04,0.00
2007,01,05,12,05,4.80
2007,01,05,12,06,3.20
2007,01,05,12,07,8.10
2007,01,05,12,08,6.40
2007,01,05,12,09,17.70
2007,01,05,12,10,27.40
2007,01,05,12,11,27.40
2007,01,05,12,12,20.90
2007,01,05,12,13,27.40
2007,01,05,12,14,38.60
2007,01,05,12,15,27.40
2007,01,05,12,16,35.40
2007,01,05,12,17,32.20
2007,01,05,12,18,24.20
2007,01,05,12,19,33.80
2007,01,05,12,20,29.00
2007,01,05,12,21,32.20
2007,01,05,12,22,24.20
2007,01,05,12,23,22.50
2007,01,05,12,24,33.80
2007,01,05,12,25,29.00
2007,01,05,12,26,20.90
2007,01,05,12,27,24.20
2007,01,05,12,28,22.50
2007,01,05,12,29,30.60
2007,01,05,12,30,29.00
2007,01,05,12,31,22.50
2007,01,05,12,32,22.50
2007,01,05,12,33,20.90
2007,01,05,12,34,19.30
2007,01,05,12,35,20.90
2007,01,05,12,36,27.40
2007,01,05,12,37,27.40
2007,01,05,12,38,27.40
2007,01,05,12,39,22.50
2007,01,05,12,40,29.00
2007,01,05,12,41,27.40
2007,01,05,12,42,25.70
2007,01,05,12,43,30.60
2007,01,05,12,44,24.20
2007,01,05,12,45,24.20
2007,01,05,12,46,16.10
2007,01,05,12,47,30.60
2007,01,05,12,48,30.60
2007,01,05,12,49,22.50
2007,01,05,12,50,22.50
2007,01,05,12,51,22.50
2007,01,05,12,52,19.30
2007,01,05,12,53,29.00
2007,01,05,12,54,25.70
2007,01,05,12,55,27.40
2007,01,05,12,56,22.50
2007,01,05,12,57,29.00
2007,01,05,12,58,32.20
2007,01,05,12,59,27.40
2007,01,05,13,00,33.80
2007,01,05,13,01,32.20
2007,01,05,13,02,25.70
2007,01,05,13,03,30.60
2007,01,05,13,04,32.20
2007,01,05,13,05,40.20
2007,01,05,13,06,35.40
2007,01,05,13,07,32.20
2007,01,05,13,08,25.70
2007,01,05,13,09,19.30
2007,01,05,13,10,37.00
2007,01,05,13,11,22.50
2007,01,05,13,12,33.80
2007,01,05,13,13,16.10
2007,01,05,13,14,27.40
2007,01,05,13,15,22.50
2007,01,05,13,16,32.20
2007,01,05,13,17,24.20
2007,01,05,13,18,20.90
2007,01,05,13,19,29.00
2007,01,05,13,20,25.70
2007,01,05,13,21,33.80
2007,01,05,13,22,29.00
2007,01,05,13,23,30.60
2007,01,05,13,24,40.20
2007,01,05,13,25,30.60
2007,01,05,13,26,30.60
2007,01,05,13,27,25.70
2007,01,05,13,28,24.20
2007,01,05,13,29,30.60
2007,01,05,13,30,20.90
2007,01,05,13,31,22.50
2007,01,05,13,32,30.60
2007,01,05,13,33,24.20
2007,01,05,13,34,19.30
2007,01,05,13,35,24.20
2007,01,05,13,36,29.00
2007,01,05,13,37,29.00
2007,01,05,13,38,22.50
2007,01,05,13,39,30.60
2007,01,05,13,40,24.20
2007,01,05,13,41,27.40
2007,01,05,13,42,22.50
2007,01,05,13,43,24.20
2007,01,05,13,44,20.90
2007,01,05,13,45,29.00
2007,01,05,13,46,29.00
2007,01,05,13,47,27.40
2007,01,05,13,48,24.20
2007,01,05,13,49,27.40
2007,01,05,13,50,20.90
2007,01,05,13,51,24.20
2007,01,05,13,52,25.70
2007,01,05,13,53,25.70
2007,01,05,13,54,27.40
2007,01,05,13,55,20.90
2007,01,05,13,56,22.50
2007,01,05,13,57,24.20
2007,01,05,13,58,22.50
2007,01,05,13,59,25.70
2007,01,05,14,00,20.90
2007,01,05,14,01,16.10
2007,01,05,14,02,9.60
2007,01,05,14,03,20.90
2007,01,05,14,04,25.70
2007,01,05,14,05,20.90
2007,01,05,14,06,19.30
2007,01,05,14,07,17.70
2007,01,05,14,08,20.90
2007,01,05,14,09,16.10
2007,01,05,14,10,22.50
2007,01,05,14,11,22.50
2007,01,05,14,12,9.60
2007,01,05,14,13,25.70
2007,01,05,14,14,22.50
2007,01,05,14,15,19.30
2007,01,05,14,16,27.40
2007,01,05,14,17,29.00
2007,01,05,14,18,17.70
2007,01,05,14,19,25.70
2007,01,05,14,20,27.40
2007,01,05,14,21,24.20
2007,01,05,14,22,25.70
2007,01,05,14,23,27.40
2007,01,05,14,24,29.00
2007,01,05,14,25,20.90
2007,01,05,14,26,29.00
2007,01,05,14,27,20.90
2007,01,05,14,28,24.20
2007,01,05,14,29,22.50
2007,01,05,14,30,24.20
2007,01,05,14,31,22.50
2007,01,05,14,32,25.70
2007,01,05,14,33,35.40
2007,01,05,14,34,30.60
2007,01,05,14,35,32.20
2007,01,05,14,36,32.20
2007,01,05,14,37,32.20
2007,01,05,14,38,27.40
2007,01,05,14,39,17.70
2007,01,05,14,40,24.20
2007,01,05,14,41,27.40
2007,01,05,14,42,25.70
2007,01,05,14,43,20.90
2007,01,05,14,44,19.30
2007,01,05,14,45,25.70
2007,01,05,14,46,17.70
2007,01,05,14,47,22.50
2007,01,05,14,48,25.70
2007,01,05,14,49,19.30
2007,01,05,14,50,22.50
2007,01,05,14,51,24.20
2007,01,05,14,52,33.80
2007,01,05,14,53,20.90
2007,01,05,14,54,24.20
2007,01,05,14,55,22.50
2007,01,05,14,56,22.50
2007,01,05,14,57,32.20
2007,01,05,14,58,33.80
2007,01,05,14,59,24.20
2007,01,05,15,00,24.20
2007,01,05,15,01,25.70
2007,01,05,15,02,20.90
2007,01,05,15,03,24.20
2007,01,05,15,04,20.90
2007,01,05,15,05,24.20
2007,01,05,15,06,29.00
2007,01,05,15,07,30.60
2007,01,05,15,08,32.20
2007,01,05,15,09,30.60
2007,01,05,15,10,19.30
2007,01,05,15,11,25.70
2007,01,05,15,12,32.20
2007,01,05,15,13,29.00
2007,01,05,15,14,25.70
2007,01,05,15,15,24.20
2007,01,05,15,16,29.00
2007,01,05,15,17,35.40
2007,01,05,15,18,25.70
2007,01,05,15,19,32.20
2007,01,05,15,20,27.40
2007,01,05,15,21,35.40
2007,01,05,15,22,25.70
2007,01,05,15,23,22.50
2007,01,05,15,24,24.20
2007,01,05,15,25,27.40
2007,01,05,15,26,22.50
2007,01,05,15,27,20.90
2007,01,05,15,28,22.50
2007,01,05,15,29,24.20
2007,01,05,15,30,20.90
2007,01,05,15,31,22.50
2007,01,05,15,32,22.50
2007,01,05,15,33,14.50
2007,01,05,15,34,19.30
2007,01,05,15,35,17.70
2007,01,05,15,36,20.90
2007,01,05,15,37,22.50
2007,01,05,15,38,20.90
2007,01,05,15,39,19.30
2007,01,05,15,40,22.50
2007,01,05,15,41,22.50
2007,01,05,15,42,14.50
2007,01,05,15,43,17.70
2007,01,05,15,44,16.10
2007,01,05,15,45,20.90
2007,01,05,15,46,24.20
2007,01,05,15,47,16.10
2007,01,05,15,48,17.70
2007,01,05,15,49,17.70
2007,01,05,15,50,19.30
2007,01,05,15,51,17.70
2007,01,05,15,52,16.10
2007,01,05,15,53,12.90
2007,01,05,15,54,14.50
2007,01,05,15,55,9.60
2007,01,05,15,56,9.60
2007,01,05,15,57,9.60
2007,01,05,15,58,17.70
2007,01,05,15,59,14.50
2007,01,05,16,00,16.10
2007,01,05,16,01,19.30
2007,01,05,16,02,14.50
2007,01,05,16,03,11.30
2007,01,05,16,04,14.50
2007,01,05,16,05,12.90
2007,01,05,16,06,22.50
2007,01,05,16,07,24.20
2007,01,05,16,08,16.10
2007,01,05,16,09,14.50
2007,01,05,16,10,9.60
2007,01,05,16,11,17.70
2007,01,05,16,12,17.70
2007,01,05,16,13,14.50
2007,01,05,16,14,17.70
2007,01,05,16,15,14.50
2007,01,05,16,16,17.70
2007,01,05,16,17,16.10
2007,01,05,16,18,20.90
2007,01,05,16,19,25.70
2007,01,05,16,20,22.50
2007,01,05,16,21,24.20
2007,01,05,16,22,25.70
2007,01,05,16,23,22.50
2007,01,05,16,24,19.30
2007,01,05,16,25,22.50
2007,01,05,16,26,14.50
2007,01,05,16,27,14.50
2007,01,05,16,28,11.30
2007,01,05,16,29,16.10
2007,01,05,16,30,11.30
2007,01,05,16,31,22.50
2007,01,05,16,32,19.30
2007,01,05,16,33,20.90
2007,01,05,16,34,19.30
2007,01,05,16,35,16.10
2007,01,05,16,36,17.70
2007,01,05,16,37,16.10
2007,01,05,16,38,16.10
2007,01,05,16,39,19.30
2007,01,05,16,40,17.70
2007,01,05,16,41,11.30
2007,01,05,16,42,11.30
2007,01,05,16,43,16.10
2007,01,05,16,44,16.10
2007,01,05,16,45,11.30
2007,01,05,16,46,14.50
2007,01,05,16,47,11.30
2007,01,05,16,48,17.70
2007,01,05,16,49,17.70
2007,01,05,16,50,29.00
2007,01,05,16,51,20.90
2007,01,05,16,52,27.40
2007,01,05,16,53,22.50
2007,01,05,16,54,17.70
2007,01,05,16,55,17.70
2007,01,05,16,56,17.70
2007,01,05,16,57,16.10
2007,01,05,16,58,22.50
2007,01,05,16,59,20.90
2007,01,05,17,00,22.50
2007,01,05,17,01,24.20
2007,01,05,17,02,24.20
2007,01,05,17,03,24.20
2007,01,05,17,04,17.70
2007,01,05,17,05,19.30
2007,01,05,17,06,14.50
2007,01,05,17,07,14.50
2007,01,05,17,08,20.90
2007,01,05,17,09,24.20
2007,01,05,17,10,24.20
2007,01,05,17,11,14.50
2007,01,05,17,12,17.70
2007,01,05,17,13,19.30
2007,01,05,17,14,17.70
2007,01,05,17,15,14.50
2007,01,05,17,16,12.90
2007,01,05,17,17,17.70
2007,01,05,17,18,19.30
2007,01,05,17,19,11.30
2007,01,05,17,20,22.50
2007,01,05,17,21,16.10
2007,01,05,17,22,14.50
2007,01,05,17,23,25.70
2007,01,05,17,24,25.70
2007,01,05,17,25,17.70
2007,01,05,17,26,20.90
2007,01,05,17,27,27.40
2007,01,05,17,28,27.40
2007,01,05,17,29,25.70
2007,01,05,17,30,19.30
2007,01,05,17,31,24.20
2007,01,05,17,32,20.90
2007,01,05,17,33,29.00
2007,01,05,17,34,29.00
2007,01,05,17,35,33.80
2007,01,05,17,36,22.50
2007,01,05,17,37,25.70
2007,01,05,17,38,27.40
2007,01,05,17,39,17.70
2007,01,05,17,40,19.30
2007,01,05,17,41,24.20
2007,01,05,17,42,33.80
2007,01,05,17,43,22.50
2007,01,05,17,44,27.40
2007,01,05,17,45,27.40
2007,01,05,17,46,17.70
2007,01,05,17,47,32.20
2007,01,05,17,48,17.70